Погода в Ивделе

Погода в Ивделе : погода сейчас, прогноз погоды и архив. Всё, что Вы хотите узнать о погоде в Ивделе!

Хотите узнать прогноз погоды в Ивделе? Тогда Вам сюда: Погода в Ивделе

Поиск расширенной информации на нашем сайте:

Другие новости

Новости СМИ2

Главная страница сайта

Новости сайта

03.07.2017

Напоминаем, что на нашем специализированном сайте Метеоцентр.Азия вы можете получить высокодетализированные автоматические прогнозы погоды по пунктам России, СНГ и мира в авиационном формате (включающие направление и скорость ветра, видимость, явления погоды, количество и форму облачности, нижнюю и верхнюю границу облачности).


Погода в Ивделе - сегодня

Время (UTC), дата Ветер
(°,м/с) 
Видим.   Явления Облачность Т
(°С)
Тd
(°С)
f(%) Тe
(°С)
Pmin
(гПа)
dP
(гПа)
Po
(мм)
O2
(г/м3)
Тmin Tmax R s Состояние
почвы
06 16.10.17 090 (В) 2900 м  слаб. морось{ливн. осадки}  10/10 240 м 
[St]
+0.9 -0.1 93 1018.6  0.4  755  303           
09 16.10.17 080 (В) 17000 м  {морось}  10/10 480 м 
[St]
+2.5 -0.2 82 +3  1019  0.5  755  302           
12 16.10.17 тихо ()   24000 м  {морось}  10/6 600 м кучево-дожд., средняя 
[Cb cap|As op]
+3.1 +0.1 81 +3  1018.9  -0.1  755  301           
15 16.10.17 тихо ()   10 км    9/8 660 м кучево-дожд., средняя 
[Cb cap|Ac trans]
+1.2 -0.2 90 +1  1019.7  0.7  756  303    +3.3  0.0     
18 16.10.17 070 (В) 10 км    10/10 570 м кучево-дожд. 
[Cb cap]
+1.7 -0.1 88 +2  1019.3  -0.4  756  303           
21 16.10.17 тихо ()   4000 м  дымка  10/4 1000 м средняя 
[Sc|Ac As]
+0.5 -0.7 92 +1  1018.2  -1.1  755  304           
00 17.10.17 тихо ()   4000 м  дымка  10/0 средняя 
[Ac As]
+0.7 -0.7 90 +1  1016.4  -1.7  753  303           
03 17.10.17 170 (Ю) 25000 м    9/3 1000 м средняя 
[Sc|Ac trans]
+0.1 -1.1 92 +1  1014.6  -1.8  752  303  +0.1        влажная 
06 17.10.17 170 (Ю) 20000 м    9/9 600 м кучево-дожд. 
[Cb cap]
+1.5 -1.2 82 +1  1012.1  -2.5  750  301           
09 17.10.17 150 (ЮВ) 20000 м  в посл. час ливневой дождь  10/8 600 м кучево-дожд., средняя 
[Cb cap|Ac As]
+3.5 -1.4 70 +2  1009.5  -2.5  748  298           
12 17.10.17 160 (Ю) 20000 м  {ливн. осадки}  10/8 600 м кучево-дожд., средняя 
[Cb cap|Ac As]
+4.3 -1.1 68 +5  1007.5  -1.9  747  296           
15 17.10.17 330 (СЗ) 10 км  в посл. час ливневой дождь  10/10 600 м кучево-дожд. 
[Cb cap]
+2.7 +0 82 +3  1005.2  -2.4  745  297    +4.4  0.0     
18 17.10.17 220 (ЮЗ) 10 км  {ливн. осадки}  10/10 600 м кучево-дожд. 
[Cb cap]
+1.2 -0.4 89 +2  1002.1  -3  743  298           
21 17.10.17 тихо ()   10 км  слаб. ливневой дождь  10/10 800 м кучево-дожд. 
[Cb cap]
+2.5 +1.2 91 +3  1000.2  -1.9  741  296           
00 18.10.17 170 (Ю) 4000 м  слаб. ливневой дождь  10/10 600 м кучево-дожд. 
[Cb cap]
+3.4 +2.4 93 +4  998.3  -1.9  740  294           
03 18.10.17 160 (Ю) 5000 м  слаб. ливневой дождь  10/10 600 м кучево-дожд. 
[Cb cap]
+5 +4 93 +6  997.3  -0.8  739  292  +1      влажная 
06 18.10.17 240 (ЮЗ) 20000 м  {ливн. осадки}  9/9 600 м кучево-дожд. 
[Cb cap]
+6.5 +4.3 86 +6  997.5  0.2  740  290           
09 18.10.17 190 (Ю) 20000 м    8/8 600 м кучево-дожд. 
[Cb cap]
+7.2 +2.1 70 +7  997.6  0.1  740  290           
12 18.10.17 220 (ЮЗ) 20000 м    6/6 600 м кучево-дожд. 
[Cb cap]
+6.4 +0.2 64 +5  997.6  740  291           
15 18.10.17 160 (Ю) 10 км    4/3 1000 м верхняя 
[Sc|Ci fib]
+2 -0.8 82 +3  998.6  0.8  740  296    +8.2  0.4     
18 18.10.17 210 (ЮЗ) 10 км    8/6 1170 м верхняя 
[Sc|Ci fib]
+2.3 -0.5 82 +3  999  0.4  741  296           
21 18.10.17 тихо ()   10 км    3/3 1000 м верхняя 
[Sc|Ci fib]
-1.1 -2.1 93 -1  998.3  -0.8  740  300           
00 19.10.17 тихо ()   10 км    9/8 1000 м верхняя 
[Sc|Ci fib]
-0.7 -1.7 93 -1  997.4  -0.9  739  299           
03 19.10.17 тихо ()   4900 м  слаб. ливневой дождь  10/10 750 м кучево-дожд. 
[Cb cap]
-0.1 -1.1 93 -0  996.3  -1.1  738  298  -1.5    0.3    влажная 
06 19.10.17 150 (ЮВ) 5000 м  слаб. ливневой дождь  9/9 480 м кучево-дожд. 
[Cb cap]
+2.6 +1.4 92 +1  994.3  -1.8  737  294           
Время (UTC), дата Ветер
(°,м/с) 
Видим.   Явления Облачность Т
(°С)
Тd
(°С)
f(%) Тe
(°С)
Pmin
(гПа)
dP
(гПа)
Po
(мм)
O2
(г/м3)
Тmin Tmax R s Состояние
почвы

Для получения пояснительной информации подведите курсор к названию столбца.

ПОГОДА в Ивделе - архив

Всё, что Вы хотите узнать о погоде в Ивделе - удобно и подробно!

Выберите нужную дату (начиная с 1 января 2015* года) и нажмите кнопку "Найти".
Будут отображены архивные сводки погоды по пункту Ивдель, начиная с указанной даты.


Отображать данные в формате CSV (для использования в таблицах Excel)


Внимание! Наш архив погоды предназначен исключительно для личного некоммерческого использования в познавательных целях. Если Вам необходимы официальные справки о состоянии погоды (для производственных, юридических, коммерческих и т.п. целей), обращайтесь в органы Росгидромета.

*Примечание: данная дата относится к архиву по метеостанциям СССР (Россия, СНГ, Балтия).
Архив по метеостанциям Зарубежной Европы и Азии (кроме Китая) хранится 10 дней, по другим регионам земного шара (Китай, Африка, Америка, Австралия, Океания) - 1 день.

Ивдель - район местоположения метеостанции


Название, широта, долгота, высота метеостанции:
Ивдель 60.7°ш. 60.4°д. 95 м над ур. моря [Российская Федерация]

Дополнительная информация

В oтличие oт бoльшинства пoгoдных сайтoв мы публикуем пoдрoбную метеoинфoрмацию в детальнoм прoфессиoнальнoм фoрмате.

Характеристики температуры и влажнoсти вoздуха измеряются на высoте 2 м в тени вдали oт зданий и деревьев.
Скoрoсть ветра измеряется на высoте 10 м (на урoвне рoста челoвека скoрoсть ветра ниже в 1.5-2 раза). Если метеoстанция нахoдится в гoрoде или в лесу, тo скoрoсть ветра занижена на 2-4 м/с пo сравнению с oткрытым местoм. Скoрoсть ветра над акватoриями крупных рек и oзёр, а также на вершинах хoлмoв на 2-5 м/с выше, чем в oбычных услoвиях.
Атмoсфернoе давление в разных тoчках местнoсти мoжет значительнo oтличаться oт давления на метеoстанции, в зависимoсти oт услoвий рельефа (при пoдъёме на 10 м давление пoнижается примернo на 1 мм рт.ст.).